TimeCST,TemperatureF,Dew PointF,Humidity,Sea Level PressureIn,VisibilityMPH,Wind Direction,Wind SpeedMPH,Gust SpeedMPH,PrecipitationIn,Events,Conditions,WindDirDegrees,DateUTC
12:02 AM,1.4,-0.4,92,29.98,0.2,SSE,4.6,-,N/A,Fog,Light Freezing Fog,150,2013-02-26 06:02:00
12:20 AM,3.2,-0.4,85,29.98,0.2,Calm,Calm,-,N/A,Fog,Light Freezing Fog,0,2013-02-26 06:20:00
12:29 AM,1.4,-0.4,92,29.99,0.8,SE,4.6,-,N/A,,Mist,130,2013-02-26 06:29:00
12:39 AM,5.0,1.4,85,29.98,0.2,SE,3.5,-,N/A,Fog,Light Freezing Fog,130,2013-02-26 06:39:00
12:53 AM,5.0,3.0,92,30.07,0.2,SSE,9.2,-,N/A,Fog,Light Freezing Fog,150,2013-02-26 06:53:00
1:53 AM,7.0,5.0,92,30.06,0.2,Calm,Calm,-,N/A,Fog,Light Freezing Fog,0,2013-02-26 07:53:00
2:46 AM,8.6,3.2,79,29.99,0.5,South,3.5,-,N/A,Fog,Light Freezing Fog,190,2013-02-26 08:46:00
2:53 AM,7.0,3.9,87,30.06,0.8,South,3.5,-,N/A,,Mist,190,2013-02-26 08:53:00
3:26 AM,6.8,3.2,85,29.98,1.5,SSW,5.8,-,N/A,,Overcast,200,2013-02-26 09:26:00
3:41 AM,6.8,3.2,85,29.98,3.0,South,4.6,-,N/A,,Overcast,190,2013-02-26 09:41:00
3:53 AM,6.1,3.0,87,30.06,6.0,South,9.2,-,N/A,,Overcast,190,2013-02-26 09:53:00
4:53 AM,7.0,3.9,87,30.05,4.0,SSE,4.6,-,N/A,,Overcast,160,2013-02-26 10:53:00
5:06 AM,8.6,3.2,79,29.98,1.8,SSE,8.1,-,N/A,,Overcast,160,2013-02-26 11:06:00
5:10 AM,8.6,3.2,79,29.98,0.8,SSE,6.9,-,N/A,,Overcast,160,2013-02-26 11:10:00
5:22 AM,8.6,5.0,85,29.99,0.2,South,6.9,-,N/A,Fog,Light Freezing Fog,170,2013-02-26 11:22:00
5:53 AM,9.0,6.1,88,30.06,0.2,Calm,Calm,-,N/A,Fog,Light Freezing Fog,0,2013-02-26 11:53:00
6:53 AM,10.0,7.0,87,30.05,0.2,Calm,Calm,-,N/A,Fog,Light Freezing Fog,0,2013-02-26 12:53:00
7:42 AM,10.4,6.8,85,29.98,0.2,Calm,Calm,-,N/A,Fog,Light Freezing Fog,0,2013-02-26 13:42:00
7:53 AM,10.0,7.0,87,30.07,0.2,SSE,5.8,-,N/A,Fog,Light Freezing Fog,160,2013-02-26 13:53:00
8:53 AM,10.0,7.0,87,30.07,0.8,Calm,Calm,-,0.00,Snow,Light Snow,0,2013-02-26 14:53:00
9:03 AM,10.4,6.8,85,29.99,1.0,Calm,Calm,-,0.00,Snow,Light Snow,0,2013-02-26 15:03:00
9:32 AM,10.4,8.6,92,30.00,1.5,Calm,Calm,-,0.00,,Overcast,0,2013-02-26 15:32:00
9:42 AM,10.4,8.6,92,30.00,1.8,Calm,Calm,-,0.00,,Overcast,0,2013-02-26 15:42:00
9:53 AM,10.9,10.0,96,30.08,2.0,Calm,Calm,-,0.00,,Overcast,0,2013-02-26 15:53:00
10:27 AM,12.2,10.4,92,30.00,3.0,Calm,Calm,-,N/A,,Overcast,0,2013-02-26 16:27:00
10:43 AM,12.2,12.2,100,30.00,2.0,Calm,Calm,-,N/A,,Overcast,0,2013-02-26 16:43:00
10:51 AM,12.2,10.4,92,30.00,1.8,Calm,Calm,-,N/A,,Overcast,0,2013-02-26 16:51:00
10:53 AM,12.9,10.9,92,30.08,1.2,NE,3.5,-,N/A,,Overcast,50,2013-02-26 16:53:00
11:05 AM,12.2,10.4,92,30.00,2.0,NE,3.5,-,N/A,,Overcast,50,2013-02-26 17:05:00
11:15 AM,14.0,10.4,86,30.00,4.0,NNE,3.5,-,N/A,,Overcast,30,2013-02-26 17:15:00
11:38 AM,14.0,10.4,86,30.01,3.0,North,3.5,-,N/A,,Overcast,10,2013-02-26 17:38:00
11:53 AM,15.1,10.9,84,30.11,3.0,Calm,Calm,-,N/A,,Overcast,0,2013-02-26 17:53:00
12:35 PM,15.8,12.2,86,30.02,2.0,SSE,3.5,-,N/A,,Overcast,160,2013-02-26 18:35:00
12:53 PM,15.1,12.9,91,30.09,3.0,Calm,Calm,-,N/A,,Overcast,0,2013-02-26 18:53:00
1:53 PM,18.0,12.0,78,30.07,5.0,Calm,Calm,-,N/A,,Haze,0,2013-02-26 19:53:00
2:16 PM,17.6,12.2,79,30.00,3.0,Calm,Calm,-,N/A,,Haze,0,2013-02-26 20:16:00
2:23 PM,17.6,12.2,79,30.00,2.0,Calm,Calm,-,N/A,,Overcast,0,2013-02-26 20:23:00
2:33 PM,17.6,12.2,79,30.00,7.0,Calm,Calm,-,N/A,,Overcast,0,2013-02-26 20:33:00
2:53 PM,18.0,12.9,81,30.08,7.0,Calm,Calm,-,N/A,,Overcast,0,2013-02-26 20:53:00
3:53 PM,16.0,12.0,84,30.09,6.0,NE,4.6,-,N/A,,Overcast,50,2013-02-26 21:53:00
4:53 PM,15.1,10.0,80,30.09,7.0,NE,5.8,-,N/A,,Mostly Cloudy,50,2013-02-26 22:53:00
5:05 PM,14.0,8.6,79,30.01,9.0,NE,4.6,-,N/A,,Scattered Clouds,50,2013-02-26 23:05:00
5:53 PM,12.9,8.1,81,30.10,10.0,NNE,3.5,-,N/A,,Clear,30,2013-02-26 23:53:00
6:53 PM,12.0,7.0,80,30.11,10.0,NNW,4.6,-,N/A,,Clear,340,2013-02-27 00:53:00
7:05 PM,12.2,6.8,79,30.03,10.0,North,5.8,-,N/A,,Scattered Clouds,350,2013-02-27 01:05:00
7:14 PM,12.2,8.6,85,30.03,6.0,North,4.6,-,N/A,,Mostly Cloudy,360,2013-02-27 01:14:00
7:22 PM,12.2,10.4,92,30.03,1.5,North,4.6,-,N/A,,Mostly Cloudy,360,2013-02-27 01:22:00
7:25 PM,12.2,10.4,92,30.03,0.8,North,5.8,-,N/A,,Overcast,10,2013-02-27 01:25:00
7:36 PM,12.2,10.4,92,30.03,1.8,North,4.6,-,N/A,,Overcast,10,2013-02-27 01:36:00
7:40 PM,12.2,8.6,85,30.03,3.0,North,5.8,-,N/A,,Mostly Cloudy,350,2013-02-27 01:40:00
7:53 PM,12.0,8.1,84,30.12,8.0,North,6.9,-,N/A,,Mostly Cloudy,350,2013-02-27 01:53:00
8:04 PM,12.2,8.6,85,30.04,8.0,North,4.6,-,N/A,,Partly Cloudy,360,2013-02-27 02:04:00
8:53 PM,10.0,6.1,84,30.14,10.0,NNW,4.6,-,N/A,,Partly Cloudy,340,2013-02-27 02:53:00
9:53 PM,9.0,5.0,84,30.14,9.0,NNW,5.8,-,N/A,,Clear,340,2013-02-27 03:53:00
10:53 PM,8.1,3.0,80,30.16,9.0,Calm,Calm,-,N/A,,Clear,0,2013-02-27 04:53:00
11:53 PM,7.0,3.0,84,30.16,9.0,Calm,Calm,-,N/A,,Clear,0,2013-02-27 05:53:00